Location: Lango�lan
(48.1202°N, 3.2340°W)
Time: 07:57:24
(UTC+00:00)

Cosmos 1812 Rocket - Pass Details

Date: 23 October 2019
Orbit: 605 x 632 km, 82.5° (Epoch: 21 November)

Event Time Altitude Azimuth Distance (km) Brightness Sun altitude
Rises 05:27:43 0° 351° (N) 2,938 6.9 -13.3°
Reaches altitude 10° 05:29:59 10° 354° (N) 2,024 6.1 -12.9°
Maximum altitude 05:34:29 74° 79° (E) 659 3.8 -12.2°
Drops below altitude 10° 05:38:54 10° 165° (SSE) 1,996 6.4 -11.5°
Sets 05:41:07 0° 168° (SSE) 2,893 7.2 -11.1°
